Wind_Speed
11 10 12 15 18 18 18 20 19 19 21 24 26 28 28 29 31 31 32 33 33 34 34 34 34 34 34 34 34 35 35 36 37 38 39 40 40 41 41 41 40 38 37
14 12 12 14 17 19 19 19 21 22 23 25 28 30 31 33 35 36 37 38 39 39 40 39 38 38 39 39 39 39 39 40 41 41 43 43 44 45 46 47 46 46 44
17 15 14 14 15 17 17 19 21 23 25 26 28 30 32 34 36 38 39 41 42 42 42 43 43 44 43 43 43 43 44 44 45 45 46 47 48 49 50 50 50 50 50
21 19 17 16 15 17 17 18 19 22 26 28 30 31 33 35 37 38 41 42 43 44 45 45 45 46 47 47 48 48 48 50 50 51 52 53 54 54 53 51 51 52 52
22 23 22 20 17 18 19 20 20 22 24 27 30 33 35 38 39 40 42 44 45 46 46 47 48 49 50 51 51 52 53 53 55 57 57 57 56 56 56 56 56 55 56
25 25 25 25 21 22 24 24 25 25 26 26 27 30 34 36 39 42 44 46 47 48 49 49 49 50 51 54 55 57 58 59 60 62 62 63 63 63 61 61 61 61 59
28 27 28 27 26 26 28 28 29 30 30 31 29 30 31 33 36 40 42 45 48 51 52 52 53 55 57 62 70 69 66 65 66 67 68 68 66 66 66 66 68 67 66
33 31 31 30 29 30 32 32 32 33 34 35 35 35 33 34 36 37 39 42 44 47 49 52 54 57 60 63 67 70 71 71 74 76 75 73 71 70 69 70 71 71 57
36 34 33 33 33 33 34 35 36 36 37 37 38 40 39 37 38 38 38 40 40 43 47 51 54 58 60 62 63 62 62 62 59 59 58 58 58 57 56 57 57 59 60
38 37 37 38 38 37 36 37 38 38 39 40 41 42 43 43 41 41 39 40 42 44 47 52 55 59 61 63 64 64 62 60 58 56 56 56 56 54 53 57 57 62 67
41 41 41 41 41 40 40 41 41 41 42 42 44 43 44 46 45 45 42 44 45 48 50 54 56 55 57 59 60 61 61 60 57 55 55 54 54 52 55 59 62 65 70
43 43 43 43 43 43 43 44 45 45 45 45 46 45 46 46 47 48 48 48 49 48 53 57 61 57 54 54 55 57 55 54 52 52 54 56 56 57 58 62 65 70 73
45 44 47 47 45 45 46 48 47 47 46 48 48 47 46 49 50 49 51 52 56 56 57 56 58 55 51 51 52 52 51 51 51 51 53 55 57 59 63 67 69 73 75
44 43 48 45 43 44 46 48 49 48 47 48 48 47 47 49 50 50 51 57 57 59 56 55 54 51 48 49 51 50 48 49 51 51 53 54 57 61 65 67 70 74 78
45 48 49 47 45 47 48 48 48 46 48 48 47 49 50 49 49 52 56 57 62 62 54 53 54 50 48 48 48 46 48 51 51 53 55 58 60 63 66 67 74 78 63
45 45 44 44 44 44 45 48 50 49 47 49 48 49 51 50 53 55 56 58 61 59 52 52 53 50 47 47 46 47 50 50 50 54 58 60 62 63 65 68 74 67 45
50 49 44 41 43 46 50 47 49 49 48 46 44 49 49 52 54 54 54 57 60 57 53 51 50 48 49 46 47 50 51 52 55 57 59 63 62 63 66 70 64 46 40
53 47 44 45 44 45 48 47 50 46 45 44 45 47 50 54 54 56 54 59 59 56 53 50 50 47 48 47 49 52 53 54 56 59 59 61 61 64 67 66 47 41 42
50 45 43 41 40 42 46 39 50 48 46 45 46 49 52 53 55 53 55 58 59 55 54 51 48 47 47 48 51 55 56 56 57 56 59 61 63 65 65 52 43 44 42
48 44 43 42 42 42 44 50 50 52 50 48 48 50 53 54 53 50 52 57 54 55 53 49 45 44 45 47 50 51 51 54 53 57 60 60 63 63 55 43 43 40 31
48 44 44 44 46 47 49 52 52 52 47 47 49 51 53 54 51 49 48 48 52 57 51 48 45 40 42 44 46 48 50 52 54 57 59 59 59 53 45 41 36 31 31
49 47 46 46 47 48 53 55 52 51 48 48 51 51 52 51 48 48 52 50 60 54 48 45 40 39 41 45 46 50 53 55 54 53 54 55 53 43 37 38 39 40 40
53 50 49 49 50 53 55 56 53 52 51 54 52 52 51 47 51 53 60 65 58 52 48 42 41 41 44 46 47 49 51 54 51 51 52 52 49 41 39 43 44 46 45
54 55 54 53 54 56 56 56 57 55 56 53 50 49 50 53 58 57 60 58 54 51 49 45 42 44 45 47 48 49 49 47 47 48 48 48 45 42 43 44 38 32 22
57 57 59 56 56 55 55 57 57 56 57 50 53 55 55 58 60 54 53 57 56 50 50 44 42 44 44 45 46 48 49 48 45 44 44 44 43 41 36 31 23 19 10
59 62 56 53 54 56 56 55 56 55 53 54 56 57 52 54 57 55 57 58 54 51 50 39 41 42 42 42 43 44 45 45 46 45 42 42 41 39 30 21 14 9 6
Wind_Direction
302 306 302 295 291 285 282 281 276 268 265 267 268 271 274 275 277 277 278 281 281 279 280 282 282 283 285 285 283 281 281 282 284 285 285 284 285 285 283 284 283 281 278
286 290 297 295 292 288 285 283 280 275 271 269 270 272 275 275 277 279 279 279 280 280 282 283 283 284 284 285 285 282 281 280 282 284 284 283 283 283 284 283 283 282 281
279 280 284 288 290 292 288 282 279 279 280 280 279 279 281 282 282 284 285 283 283 282 281 283 283 285 286 285 283 282 280 279 278 280 282 283 282 282 282 282 281 282 282
278 278 277 278 284 288 288 284 283 280 278 278 278 280 280 281 281 282 283 283 283 283 283 283 283 283 283 283 282 280 280 281 282 284 285 285 286 286 283 280 281 281 280
273 276 277 276 278 281 283 284 286 288 284 283 282 281 280 280 282 284 284 285 285 285 284 284 284 285 284 284 283 281 280 279 279 279 280 280 280 280 281 281 281 281 281
274 273 274 275 274 275 278 282 286 286 284 285 289 291 291 289 287 285 283 283 282 282 282 282 283 283 283 283 281 279 278 276 275 276 278 280 280 280 280 281 280 281 280
271 269 269 272 273 273 276 279 281 284 285 285 288 290 293 293 293 291 289 288 287 285 283 283 283 282 280 278 277 276 278 279 279 281 282 281 282 282 281 281 281 280 276
268 268 271 273 272 271 273 275 277 280 282 282 284 285 284 289 292 293 291 289 289 289 288 287 284 283 280 278 276 277 278 278 277 277 280 281 282 281 281 280 281 278 282
269 271 270 270 271 271 272 274 275 278 281 283 284 284 285 287 290 295 295 293 294 295 296 293 291 287 286 285 284 283 282 282 282 282 282 282 283 283 282 283 285 285 283
267 267 268 268 268 269 272 275 276 277 280 282 288 288 290 291 290 289 291 293 295 297 297 296 293 290 289 288 287 286 286 286 286 285 284 283 282 283 283 281 282 281 283
263 264 266 267 269 272 275 276 279 280 282 283 289 288 289 289 290 290 289 289 293 296 299 302 299 293 289 287 285 284 284 285 286 285 284 284 284 281 281 284 286 288 288
265 265 265 267 269 271 276 278 282 281 284 286 289 289 292 294 293 291 291 295 297 297 302 303 300 293 290 287 286 287 288 287 287 287 288 287 285 285 286 289 293 293 292
265 266 266 266 269 273 278 278 281 281 285 287 291 292 296 297 296 294 297 299 303 303 306 304 302 298 293 289 289 289 287 286 286 286 288 288 288 288 290 294 296 296 293
269 274 274 274 272 272 272 278 281 283 287 290 291 295 298 298 294 295 299 302 302 304 305 303 301 296 291 290 292 290 287 287 287 285 288 288 290 292 295 296 295 294 295
266 270 274 273 272 273 277 277 279 284 288 289 294 295 293 295 298 300 302 302 305 304 305 301 299 293 289 289 293 292 292 293 292 292 293 294 297 299 298 297 296 296 298
266 270 273 271 272 275 276 279 282 287 287 290 292 294 298 298 298 301 302 307 308 310 306 300 301 295 292 296 298 297 298 297 296 295 298 300 302 300 299 298 296 297 288
266 269 267 269 274 278 278 280 284 287 290 290 295 296 297 298 299 303 308 312 308 309 306 303 301 294 294 297 300 301 301 300 300 302 303 302 301 301 298 297 298 291 278
265 268 268 271 274 277 277 279 282 287 293 297 298 297 296 301 303 307 310 311 309 307 305 299 300 294 296 301 302 302 302 302 303 303 304 303 302 303 301 300 293 284 280
264 266 267 271 276 279 283 280 286 289 295 297 297 298 302 306 308 308 309 310 307 305 301 298 294 295 300 301 301 304 306 306 304 305 305 305 306 306 302 300 290 286 286
263 264 266 271 274 278 277 281 288 292 295 296 296 300 303 305 305 307 306 306 306 304 302 297 297 303 301 303 306 307 309 308 310 309 308 311 312 307 304 296 289 284 282
259 262 269 273 276 277 280 284 279 289 291 294 293 293 297 301 301 301 304 308 310 310 302 302 302 300 302 308 310 313 314 313 314 315 315 318 313 307 297 291 282 278 284
261 266 269 268 270 276 280 283 283 286 290 289 289 289 294 296 297 298 305 304 312 308 302 300 295 300 305 307 312 316 317 318 318 319 321 318 313 303 294 284 280 281 286
260 267 268 269 272 275 280 280 282 287 288 291 293 292 290 295 299 298 306 310 310 302 303 291 295 300 303 309 312 317 320 321 323 326 324 319 312 305 295 294 295 294 291
260 265 270 271 271 276 278 280 283 287 289 294 290 290 290 288 298 302 305 306 306 299 300 291 297 301 305 310 316 320 323 326 328 326 322 319 316 313 305 303 301 304 293
263 267 270 272 271 273 276 279 283 285 289 291 291 289 291 289 289 300 301 303 302 296 294 291 297 301 305 312 316 321 326 330 330 327 323 321 318 316 310 302 307 307 296
263 267 267 268 269 274 279 282 284 290 292 289 286 286 292 297 296 297 297 300 295 292 293 291 296 298 304 311 315 319 322 324 323 325 326 321 318 319 315 304 291 301 192
Height
5855 5854 5854 5853 5853 5852 5852 5852 5853 5853 5853 5853 5853 5852 5852 5852 5852 5851 5850 5849 5848 5847 5846 5845 5843 5842 5841 5839 5837 5835 5834 5833 5831 5829 5828 5826 5824 5823 5821 5820 5818 5818 5817
5851 5850 5850 5850 5849 5849 5848 5848 5848 5848 5848 5847 5847 5847 5846 5846 5845 5844 5844 5842 5841 5840 5839 5837 5836 5834 5832 5830 5828 5827 5824 5822 5821 5819 5817 5815 5814 5812 5811 5809 5807 5805 5804
5847 5847 5846 5845 5844 5844 5844 5844 5843 5843 5842 5843 5842 5842 5841 5840 5838 5836 5836 5834 5833 5832 5830 5828 5827 5825 5823 5820 5818 5816 5814 5811 5809 5807 5805 5803 5802 5801 5800 5798 5796 5794 5792
5843 5842 5841 5841 5840 5840 5839 5839 5838 5838 5837 5837 5836 5835 5833 5832 5830 5829 5826 5825 5824 5822 5820 5819 5818 5816 5813 5811 5808 5805 5803 5800 5798 5795 5793 5791 5789 5787 5786 5784 5783 5781 5780
5839 5838 5837 5836 5835 5835 5834 5834 5834 5833 5832 5830 5829 5828 5826 5824 5823 5821 5818 5816 5814 5812 5810 5808 5807 5804 5802 5799 5796 5793 5791 5788 5786 5784 5782 5779 5778 5775 5773 5771 5768 5766 5764
5833 5832 5831 5831 5829 5829 5828 5828 5827 5827 5825 5824 5823 5821 5819 5818 5816 5813 5811 5808 5806 5803 5801 5799 5796 5793 5789 5786 5783 5780 5777 5774 5771 5769 5768 5766 5764 5761 5759 5757 5754 5752 5750
5825 5825 5824 5824 5824 5823 5822 5821 5820 5820 5819 5817 5817 5814 5813 5810 5808 5805 5802 5800 5797 5794 5791 5788 5785 5781 5777 5773 5770 5768 5764 5760 5758 5756 5754 5752 5749 5747 5743 5742 5739 5737 5735
5815 5817 5817 5817 5817 5816 5815 5815 5813 5813 5812 5811 5810 5808 5807 5805 5801 5798 5794 5791 5788 5784 5781 5777 5772 5768 5764 5760 5757 5753 5750 5747 5744 5742 5739 5735 5732 5728 5726 5724 5722 5719 5714
5806 5808 5809 5809 5809 5809 5808 5807 5806 5805 5804 5803 5801 5799 5797 5797 5794 5791 5786 5782 5778 5775 5771 5766 5761 5755 5749 5746 5742 5739 5736 5733 5729 5726 5722 5719 5716 5713 5711 5708 5706 5704 5703
5797 5799 5799 5799 5799 5798 5797 5797 5797 5796 5795 5793 5791 5789 5786 5785 5784 5784 5780 5775 5771 5766 5762 5756 5750 5743 5736 5731 5728 5724 5721 5718 5715 5711 5707 5705 5702 5700 5697 5694 5692 5690 5687
5788 5789 5789 5789 5789 5789 5787 5786 5786 5785 5785 5784 5782 5779 5777 5775 5772 5770 5771 5767 5762 5756 5751 5744 5736 5730 5723 5719 5714 5711 5707 5704 5701 5697 5693 5690 5687 5685 5683 5680 5676 5672 5667
5778 5778 5779 5779 5779 5780 5779 5777 5776 5776 5776 5774 5772 5769 5767 5763 5761 5758 5755 5753 5750 5748 5740 5731 5722 5717 5712 5706 5701 5698 5694 5690 5687 5683 5678 5674 5672 5668 5665 5661 5656 5651 5645
5766 5766 5767 5768 5769 5769 5769 5768 5767 5766 5765 5763 5761 5758 5756 5753 5749 5746 5743 5738 5733 5730 5726 5719 5708 5702 5697 5694 5690 5685 5681 5677 5673 5670 5666 5661 5656 5651 5647 5642 5637 5631 5626
5757 5758 5757 5759 5759 5758 5757 5756 5755 5755 5754 5752 5749 5747 5745 5741 5737 5734 5729 5725 5719 5715 5712 5703 5696 5690 5684 5681 5677 5672 5668 5663 5659 5656 5652 5647 5642 5637 5630 5624 5618 5613 5605
5747 5746 5747 5748 5748 5748 5747 5746 5745 5744 5742 5739 5737 5734 5732 5728 5724 5721 5716 5711 5704 5700 5698 5690 5681 5676 5672 5668 5663 5659 5655 5651 5645 5640 5635 5630 5625 5618 5613 5606 5600 5592 5586
5735 5736 5737 5737 5737 5737 5736 5734 5733 5732 5731 5729 5726 5723 5720 5716 5713 5709 5705 5698 5691 5686 5683 5675 5668 5662 5657 5654 5649 5645 5641 5636 5632 5627 5620 5614 5608 5603 5596 5588 5580 5573 5570
5723 5725 5727 5727 5726 5725 5723 5724 5721 5720 5719 5717 5715 5713 5708 5704 5701 5697 5692 5685 5678 5673 5669 5663 5655 5649 5644 5639 5635 5630 5626 5622 5618 5611 5605 5600 5593 5585 5578 5569 5560 5557 5557
5711 5714 5715 5714 5714 5713 5713 5712 5710 5708 5707 5705 5703 5700 5697 5693 5689 5685 5679 5672 5666 5660 5655 5650 5642 5637 5631 5627 5622 5618 5614 5609 5604 5598 5590 5584 5577 5569 5560 5551 5546 5544 5543
5700 5703 5703 5704 5703 5702 5700 5697 5700 5697 5696 5693 5691 5688 5685 5681 5676 5671 5666 5660 5653 5647 5640 5636 5631 5625 5620 5615 5611 5606 5599 5595 5588 5582 5575 5567 5560 5551 5542 5536 5533 5530 5529
5690 5692 5693 5693 5693 5692 5692 5690 5687 5686 5684 5682 5680 5676 5673 5668 5663 5658 5654 5649 5641 5635 5628 5623 5619 5613 5608 5604 5599 5595 5588 5581 5575 5567 5561 5553 5543 5534 5527 5524 5521 5519 5518
5680 5682 5682 5682 5682 5681 5680 5678 5677 5674 5673 5671 5668 5664 5660 5655 5650 5646 5642 5636 5631 5624 5618 5613 5607 5602 5598 5593 5588 5582 5576 5568 5561 5554 5547 5536 5529 5522 5517 5513 5511 5510 5509
5668 5670 5671 5671 5670 5669 5667 5666 5664 5662 5662 5659 5655 5651 5647 5642 5638 5634 5629 5624 5619 5612 5607 5601 5597 5593 5587 5583 5576 5570 5563 5556 5551 5544 5533 5525 5516 5510 5505 5502 5500 5500 5499
5657 5658 5658 5658 5658 5656 5655 5654 5653 5652 5649 5646 5642 5638 5634 5631 5626 5622 5617 5612 5605 5601 5596 5592 5586 5582 5577 5571 5565 5559 5552 5546 5537 5529 5522 5514 5507 5501 5497 5492 5488 5487 5486
5644 5644 5645 5645 5645 5644 5642 5642 5641 5639 5636 5633 5629 5625 5622 5619 5614 5609 5603 5599 5594 5589 5584 5580 5575 5571 5565 5560 5554 5548 5542 5535 5526 5518 5512 5505 5498 5493 5489 5484 5479 5474 5473
5631 5632 5632 5632 5631 5630 5630 5630 5628 5626 5624 5621 5617 5613 5609 5604 5601 5595 5591 5586 5582 5577 5573 5568 5565 5560 5555 5549 5543 5536 5529 5524 5519 5513 5506 5499 5492 5485 5482 5479 5473 5469 5468
5617 5618 5619 5619 5619 5619 5617 5616 5615 5613 5610 5606 5602 5599 5594 5590 5587 5581 5577 5573 5569 5565 5561 5558 5555 5550 5544 5539 5534 5529 5524 5519 5514 5508 5502 5494 5486 5480 5475 5473 5471 5468 5468